Location: Penzberg
(47.7615°N, 11.3159°E)
Time: 06:48:34
(UTC+01:00)

Tiangong 2 - Visible Passes

Search period start: 22 November 2017 00:00
Search period end: 02 December 2017 00:00
Orbit: 386 x 392 km, 42.8° (Epoch: 21 November)

Date Brightness Start Highest point End Pass type
(mag) Time Alt. Az. Time Alt. Az. Time Alt. Az.
27 Nov 3.9 06:50:03 10° SSW 06:52:18 18° SSE 06:54:35 10° ESE visible
28 Nov 4.0 05:52:47 10° S 05:54:19 13° SSE 05:55:52 10° SE visible
29 Nov 3.2 06:29:49 10° SW 06:32:28 24° SSE 06:35:08 10° ESE visible
30 Nov 3.4 05:33:28 17° S 05:34:25 19° SSE 05:36:44 10° ESE visible
01 Dec 2.7 06:10:33 15° SW 06:12:38 29° S 06:15:29 10° ESE visible
